Zurück zum Katalog

AO-95

AktivAmateurfunkSSO
NORAD 43770·PAYLOAD·🇺🇸 United States

Gestartet Dec 3, 2018 von Vandenberg Space Force Base

Loading…

Nächste Überflüge (nächste 24 Stunden)

TLE

AktuellSource: AMSAT

Epoche: Sep 14, 2026, 14:57 UTC

1 43770U 18099N   26257.62311903  .00008878  00000-0  32330-3 0  9990
2 43770  97.4286 317.6039 0009013  41.0365 319.1551 15.28407823426872

Verfolge AO-95 in Echtzeit mit AllMySat

Download on the App Store